Date,TemperatureHighF,TemperatureAvgF,TemperatureLowF,DewpointHighF,DewpointAvgF,DewpointLowF,HumidityHigh,HumidityAvg,HumidityLow,PressureMaxIn,PressureMinIn,WindSpeedMaxMPH,WindSpeedAvgMPH,GustSpeedMaxMPH,PrecipitationSumIn
2013-4-1,50,41,32,43,29,20,90,63,40,30.39,30.03,21,5,22,0.00
2013-4-2,45,35,22,23,19,17,85,55,34,30.54,30.39,20,3,21,0.00
2013-4-3,46,35,21,23,18,14,88,52,32,30.71,30.54,18,3,19,0.00
2013-4-4,56,41,30,29,21,18,66,46,25,30.65,30.26,14,4,15,0.00
2013-4-5,60,45,28,37,29,24,88,58,34,30.41,30.25,20,2,20,0.00
2013-4-6,64,50,35,40,31,24,67,49,33,30.50,30.16,21,7,21,0.00
2013-4-7,72,64,59,54,46,38,84,52,41,30.21,30.09,32,10,32,0.00
2013-4-8,72,62,51,58,54,50,99,76,57,30.22,30.09,36,8,36,0.07
2013-4-9,80,67,51,62,57,50,97,71,45,30.28,30.13,34,7,34,0.00
2013-4-10,83,73,63,68,62,58,84,70,52,30.17,29.98,30,9,31,0.00
2013-4-11,66,62,58,63,59,57,99,91,83,30.05,29.76,23,5,23,1.13
2013-4-12,58,47,41,58,41,33,100,81,64,30.17,29.72,27,9,29,0.11
2013-4-13,57,46,40,41,37,33,86,70,47,30.30,30.17,26,8,30,0.00
2013-4-14,69,54,38,48,41,34,88,65,41,30.34,30.14,19,5,19,0.00
2013-4-15,69,62,54,56,52,43,81,70,50,30.23,30.13,19,6,19,0.00
2013-4-16,79,65,57,66,59,54,99,83,61,30.39,30.17,33,7,33,0.40
2013-4-17,78,64,52,67,60,52,100,89,63,30.45,30.19,22,5,23,0.62
2013-4-18,82,73,65,66,61,55,86,66,45,30.20,29.81,39,14,39,0.00
2013-4-19,74,50,39,62,42,32,97,75,54,30.21,29.62,36,13,36,0.68
2013-4-20,49,41,36,34,30,27,87,67,44,30.68,30.21,24,7,25,0.00
2013-4-21,54,43,32,33,29,25,78,59,37,30.82,30.66,22,5,22,0.00
2013-4-22,69,54,37,48,37,29,80,55,35,30.66,30.38,21,4,21,0.00
2013-4-23,70,59,42,55,48,41,97,70,51,30.40,30.09,25,5,25,0.00
2013-4-24,66,51,37,57,46,35,98,82,62,30.47,29.99,31,7,31,0.73
2013-4-25,58,45,34,40,35,30,98,71,41,30.65,30.47,29,6,29,0.01
2013-4-26,60,47,30,42,33,29,98,65,34,30.75,30.61,13,1,13,0.00
2013-4-27,68,54,38,52,44,37,98,73,37,30.62,30.31,21,5,22,0.00
2013-4-28,68,59,56,61,56,52,96,90,75,30.31,30.05,21,6,22,0.10
2013-4-29,64,59,54,57,56,53,99,89,75,30.22,30.11,10,3,11,0.01
2013-4-30,76,62,44,59,54,44,100,78,50,30.30,30.20,15,3,15,0.00